• Processing (Info)

  • MPEC 2024-A85 : 2024 AV1

    The following Minor Planet Electronic Circular may be linked-to from your own Web pages, but must not otherwise be redistributed electronically.

    A form allowing access to any MPEC is at the bottom of this page.


    Read MPEC 2024-A84 Read MPEC 2024-A86


    M.P.E.C. 2024-A85                               Issued 2024 January 9, 05:56 UT
    
         The Minor Planet Electronic Circulars contain information on unusual
             minor planets, routine data on comets and natural satellites,
             and occasional editorial announcements.  They are published
        on behalf of Division F of the International Astronomical Union by the
              Minor Planet Center, Smithsonian Astrophysical Observatory,
                              Cambridge, MA 02138, U.S.A.
    			  
                 Prepared using the Tamkin Foundation Computer Network
    
                                  MPC@CFA.HARVARD.EDU
                URL https://www.minorplanetcenter.net/    ISSN 1523-6714
    
                                    2024 AV1                                 
    
    
    Observations:
         K24A01V* C2024 01 07.23086610 40 31.346-42 32 33.14         19.05oVEA085W68
         K24A01V  C2024 01 07.23359610 40 30.554-42 32 28.82         19.23oVEA085W68
         K24A01V  C2024 01 07.23644210 40 29.738-42 32 24.22         19.41oVEA085W68
         K24A01V  C2024 01 07.24201510 40 28.198-42 32 16.19         19.01oVEA085W68
         K24A01V KC2024 01 07.45702010 39 30.734-42 26 22.81         19.5 GVEA085474
         K24A01V KC2024 01 07.45878810 39 30.262-42 26 20.11         19.5 GVEA085474
         K24A01V KC2024 01 07.46055710 39 29.760-42 26 17.81         19.6 GVEA085474
         K24A01V KC2024 01 07.46232410 39 29.278-42 26 15.29         19.4 GVEA085474
         K24A01V KC2024 01 07.63138210 38 41.926-42 22 09.52         19.5 GVEA085474
         K24A01V KC2024 01 07.63280110 38 41.522-42 22 07.36         19.6 GVEA085474
         K24A01V KC2024 01 07.63422110 38 41.105-42 22 05.27         19.7 GVEA085474
         K24A01V KC2024 01 07.63564110 38 40.704-42 22 03.07         19.8 GVEA085474
         K24A01V |C2024 01 08.22164010 36 07.360-42 06 57.70         20.0 GVEA085807
         K24A01V |C2024 01 08.22403010 36 06.710-42 06 54.50         19.8 GVEA085807
         K24A01V |C2024 01 08.22643010 36 06.010-42 06 50.70         20.1 GVEA085807
         K24A01V |C2024 01 09.23093010 31 47.780-41 40 40.90         19.4 GVEA085807
         K24A01V |C2024 01 09.23252010 31 47.360-41 40 38.10         19.5 GVEA085807
         K24A01V |C2024 01 09.23412010 31 46.960-41 40 36.20         20.0 GVEA085807
    
    Observer details:
    474 Mount John Observatory, Lake Tekapo.  Observers A. C. Gilmore, P. M.
        Kilmartin.  Measurer P. M. Kilmartin.  1.0-m f/7.7 Reflector + CCD.
    807 Cerro Tololo Observatory, La Serena.  Observers T. Linder, R. Holmes.
        0.61-m f/11 Ritchey-Chretien + CCD.
    W68 ATLAS Chile, Rio Hurtado.  Observers L. Denneau, R. Siverd, J. Tonry, H.
        Weiland.  Measurers L. Denneau, N. Erasmus, A. Fitzsimmons, A. Lawrence,
        J. Robinson, R. Siverd, J. Tonry, H. Weiland.  0.5-m Reflector + CCD.
    
    Orbital elements:
    2024 AV1                                                 Earth MOID = 0.1073 AU
    Epoch 2023 Sept. 13.0 TT = JDT 2460200.5                MPC                     
    M 325.88995              (2000.0)            P               Q                  
    n   0.51195057     Peri.  167.59094     +0.66807408     -0.72877675             
    a   1.5475714      Node   240.27352     +0.66705645     +0.67602459             
    e   0.4574139      Incl.    9.96036     +0.32971611     +0.10897343             
    P   1.93           H   20.69          G   0.15           U   9                  
    Residuals in seconds of arc
    240107 W68  0.1-  0.5-    240107 474  0.1-  0.1-    240108 807  0.0   0.1+
    240107 W68  0.2-  0.1-    240107 474  0.1-  0.1-    240108 807  0.1+  0.1-
    240107 W68  0.1-  0.4+    240107 474  0.0   0.0     240108 807  0.3-  0.2+
    240107 W68  0.6+  0.4+    240107 474  0.0   0.0     240109 807  0.1-  0.2-
    240107 474  0.0   0.1-    240107 474  0.2-  0.1-    240109 807  0.0   0.3+
    240107 474  0.1+  0.1+    240107 474  0.1-  0.0     240109 807  0.3+  0.2-
    
    Ephemeris:
    2024 AV1                 a,e,i = 1.55, 0.46, 10                  q = 0.8397
    Date    TT    R. A. (2000) Decl.     Delta      r    Elong.  Phase     V
    2023 12 10    15 18 45.1 -43 55 24   0.1221  0.8817    30.3   145.7    23.5
    ...
    2023 12 25    12 04 00.2 -47 45 50   0.1541  0.9528    74.1    97.0    20.0
    ...
    2024 01 02    11 06 56.4 -44 44 03   0.1817  1.0001    90.0    79.5    19.8
    ...
    2024 01 08    10 37 03.5 -42 12 41   0.2030  1.0384   100.1    68.8    19.7
    2024 01 09    10 32 44.5 -41 46 41   0.2066  1.0449   101.7    67.2    19.7
    2024 01 10    10 28 34.5 -41 20 25   0.2102  1.0516   103.2    65.6    19.7
    ...
    2024 01 16    10 06 12.4 -38 35 45   0.2320  1.0921   112.0    56.6    19.8
    ...
    2024 01 24    09 41 55.4 -34 34 09   0.2628  1.1478   122.7    46.2    19.8
    ...
    2024 02 08    09 09 57.2 -26 04 48   0.3318  1.2542   138.5    31.4    20.1
    
    A. U. Tomatic                (C) Copyright 2024 MPC           M.P.E.C. 2024-A85
    


    Read MPEC 2024-A84 Read MPEC 2024-A86


    MPEC number:

    Enter an MPEC number in one of the following forms:

    • 1997-B01 (the full form)
    • J97B01 (the packed version of the full form)
    • B01 (the abbreviated form)